map of SKV home
Great Circle Mapper logo
SKV - Airport
Location
City:  St. Catherine, Janub Sina (South Sinai), Egypt
Name:St. Catherine International Airport
ICAO:HESC
IATA:SKV

Details
Type:Airport (Aerodrome, Airfield)
Use:International (customs port of entry)
Latitude:2841'07"N (28.685278)
Longitude:3403'45"E (34.062500)
Datum:WGS 1984
Elevation:4368 ft (1331 m)
Variation:4.22E (WMM2015 magnetic declination)
0.08 annual change
Runways:1
Longest:6939 × 118 ft (2115 × 36 m), paved

Time
Time Zone:UTC+2 (DST+3)

Weather
METAR:HESC 250600Z 00000KT CAVOK 20/M05 Q1022 NOSIG

Related Locations
Nearby:
Farthest:RVV: 12084 mi / 19447 km
Raivavae, Tubuai Islands, Austral Islands, PF

Find:

   beyond  
but within

Other Information
Maps:
NOTAMs:
Links:
Sources:

  
flag of Egypt
flag of Janub Sina (South Sinai)
  

Sectional Chart

Flight Planning
at skyvector.com

Satellite Image

Google Maps Satellite view

 

Copyright © 2004-2016 Karl L. Swartz. All rights reserved.
The Great Circle Mapper name and logo are trademarks of the Great Circle Mapper.
All other trademarks mentioned herein belong to their respective owners.
Please see credits for attibutions and further copyright information.

  Follow gcmap on Facebook Follow gcmap on Twitter Follow gcmap on Google+ GCmap on LinkedIn

hCard Microformat

Geo Microformat